TimeEDT,TemperatureF,Dew PointF,Humidity,Sea Level PressureIn,VisibilityMPH,Wind Direction,Wind SpeedMPH,Gust SpeedMPH,PrecipitationIn,Events,Conditions,WindDirDegrees,DateUTC
12:53 AM,52.0,48.9,89,30.06,10.0,Calm,Calm,-,N/A,,Clear,0,2013-09-20 04:53:00
1:53 AM,50.0,48.0,93,30.06,10.0,Calm,Calm,-,N/A,,Clear,0,2013-09-20 05:53:00
2:53 AM,50.0,48.0,93,30.05,10.0,North,3.5,-,N/A,,Clear,350,2013-09-20 06:53:00
3:53 AM,48.9,46.9,93,30.05,10.0,Calm,Calm,-,0.01,,Clear,0,2013-09-20 07:53:00
4:53 AM,46.9,46.0,97,30.05,10.0,NNW,5.8,-,N/A,,Clear,330,2013-09-20 08:53:00
5:27 AM,50.0,48.2,94,30.05,10.0,NNW,4.6,-,N/A,,Partly Cloudy,330,2013-09-20 09:27:00
5:49 AM,48.2,48.2,100,30.05,1.8,NNW,4.6,-,N/A,,Scattered Clouds,330,2013-09-20 09:49:00
5:53 AM,48.9,48.0,97,30.06,0.8,NNW,4.6,-,N/A,,Mist,330,2013-09-20 09:53:00
6:21 AM,48.2,48.2,100,30.07,0.2,NW,5.8,-,N/A,Fog,Fog,320,2013-09-20 10:21:00
6:29 AM,46.4,46.4,100,30.07,0.8,NNW,5.8,-,N/A,,Mist,330,2013-09-20 10:29:00
6:33 AM,46.4,46.4,100,30.07,1.5,NNW,5.8,-,N/A,,Scattered Clouds,330,2013-09-20 10:33:00
6:36 AM,46.4,46.4,100,30.07,3.0,NNW,6.9,-,N/A,,Scattered Clouds,340,2013-09-20 10:36:00
6:41 AM,46.4,46.4,100,30.07,1.8,NNW,5.8,-,N/A,,Partly Cloudy,330,2013-09-20 10:41:00
6:48 AM,48.2,48.2,100,30.07,3.0,NNW,4.6,-,N/A,,Clear,340,2013-09-20 10:48:00
6:53 AM,48.9,48.9,100,30.08,8.0,North,4.6,-,N/A,,Clear,350,2013-09-20 10:53:00
7:53 AM,54.0,51.1,90,30.09,10.0,Calm,Calm,-,N/A,,Clear,0,2013-09-20 11:53:00
8:53 AM,60.1,53.1,78,30.10,10.0,Calm,Calm,-,N/A,,Clear,0,2013-09-20 12:53:00
9:53 AM,64.9,54.0,68,30.12,10.0,Calm,Calm,-,N/A,,Clear,0,2013-09-20 13:53:00
10:53 AM,68.0,50.0,52,30.11,10.0,Calm,Calm,-,N/A,,Clear,0,2013-09-20 14:53:00
11:53 AM,71.1,50.0,47,30.09,10.0,Variable,4.6,-,N/A,,Clear,0,2013-09-20 15:53:00
12:53 PM,73.0,51.1,46,30.07,10.0,Variable,4.6,-,N/A,,Clear,0,2013-09-20 16:53:00
1:53 PM,73.0,51.1,46,30.05,10.0,SSE,4.6,-,N/A,,Clear,160,2013-09-20 17:53:00
2:53 PM,73.9,52.0,46,30.04,10.0,SSW,4.6,-,N/A,,Clear,210,2013-09-20 18:53:00
3:53 PM,73.9,53.1,48,30.03,10.0,Variable,4.6,-,N/A,,Clear,0,2013-09-20 19:53:00
4:53 PM,73.0,53.1,49,30.03,10.0,South,6.9,-,N/A,,Clear,170,2013-09-20 20:53:00
5:53 PM,70.0,52.0,53,30.04,10.0,SSE,8.1,-,N/A,,Clear,160,2013-09-20 21:53:00
6:53 PM,64.9,53.1,65,30.04,10.0,SSE,6.9,-,N/A,,Clear,160,2013-09-20 22:53:00
7:53 PM,63.0,53.1,70,30.05,10.0,SSE,5.8,-,N/A,,Clear,160,2013-09-20 23:53:00
8:53 PM,59.0,53.1,81,30.05,10.0,SSE,4.6,-,N/A,,Clear,160,2013-09-21 00:53:00
9:53 PM,57.0,53.1,87,30.05,10.0,SSE,4.6,-,N/A,,Clear,160,2013-09-21 01:53:00
10:53 PM,55.0,52.0,89,30.05,10.0,Calm,Calm,-,N/A,,Clear,0,2013-09-21 02:53:00
11:53 PM,53.1,51.1,93,30.04,10.0,SE,3.5,-,N/A,,Clear,140,2013-09-21 03:53:00